This demonstration page uses our WeatherBlox Daily Observations layout. Learn more.

Left ArrowRight Arrow

Hourly Observations for July 15, 2022

Temp ( °F °C ) Dew Point ( °F °C ) Humidity (%) Winds ( mph kmh ) Pressure ( in mb ) Visibility ( mi km ) Precip ( " mm )
12:15 am 00:15 Clear 83 28.4 60 15.7 46 46 SSW 10 17 29.79 1009 10 16 0.00 0.00
12:35 am 00:35 Clear 80 26.9 61 15.9 51 51 SSW 6 9 29.81 1010 10 16 0.00 0.00
12:50 am 00:50 Clear 79 26 61 16 54 54 SW 6 9 29.83 1010 10 16 0.00 0.00
1:15 am 01:15 Clear 79 26.2 60 15.5 52 52 W 7 11 29.84 1010 10 16 0.00 0.00
1:35 am 01:35 Clear 78 25.6 59 15 52 52 W 6 9 29.85 1011 10 16 0.00 0.00
1:55 am 01:55 Clear 82 27.5 56 13.6 42 42 W 7 11 29.84 1010 10 16 0.00 0.00
2:15 am 02:15 Clear 82 27.8 57 13.7 42 42 W 9 15 29.83 1010 10 16 0.00 0.00
2:35 am 02:35 Clear 82 27.6 57 14 43 43 W 9 15 29.85 1011 10 16 0.00 0.00
2:55 am 02:55 Clear 81 27.4 57 14.1 44 44 W 8 13 29.85 1011 10 16 0.00 0.00
3:15 am 03:15 Clear 81 27.2 58 14.2 45 45 WNW 9 15 29.85 1011 10 16 0.00 0.00
3:35 am 03:35 Clear 80 26.8 58 14.3 46 46 WNW 6 9 29.85 1011 10 16 0.00 0.00
3:55 am 03:55 Clear 79 26.1 58 14.5 49 49 WNW 6 9 29.86 1011 10 16 0.00 0.00
4:15 am 04:15 Clear 78 25.8 58 14.7 50 50 W 7 11 29.86 1011 10 16 0.00 0.00
4:35 am 04:35 Clear 79 26.1 58 14.6 49 49 W 5 7 29.86 1011 10 16 0.00 0.00
4:55 am 04:55 Clear 81 27.4 57 13.8 43 43 WSW 8 13 29.84 1010 10 16 0.00 0.00
5:15 am 05:15 Clear 80 26.6 57 14.1 46 46 Calm 29.84 1011 10 16 0.00 0.00
5:35 am 05:35 Clear 76 24.3 59 15.2 57 57 Calm 29.86 1011 10 16 0.00 0.00
5:55 am 05:55 Clear 71 21.5 61 16.1 71 71 Calm 29.88 1012 10 16 0.00 0.00
6:15 am 06:15 Clear 72 22.4 60 15.7 66 66 Calm 29.89 1012 10 16 0.00 0.00
6:35 am 06:35 Sunny 70 21.2 61 16.3 74 74 Calm 29.91 1013 10 16 0.00 0.00
6:50 am 06:50 Sunny 73 22.6 62 16.7 69 69 N 3 6 29.90 1012 10 16 0.00 0.00
7:15 am 07:15 Sunny 71 21.4 64 18 81 81 N 3 6 29.91 1013 10 16 0.00 0.00
7:35 am 07:35 Sunny 74 23.1 65 18.6 76 76 N 5 7 29.90 1013 10 16 0.00 0.00
7:55 am 07:55 Sunny 75 23.9 66 19 74 74 NNE 3 6 29.91 1013 10 16 0.00 0.00
8:15 am 08:15 Sunny 77 25.2 68 20.2 74 74 Calm 29.90 1013 10 16 0.00 0.00
8:35 am 08:35 Sunny 79 26 67 19.4 67 67 Calm 29.91 1013 10 16 0.00 0.00
8:55 am 08:55 Sunny 79 26.3 68 20.2 69 69 N 5 7 29.91 1013 7 11 0.00 0.00
9:10 am 09:10 Mostly Cloudy with Haze 80 26.6 68 20.2 68 68 N 6 9 29.90 1013 1 2 0.00 0.00
9:35 am 09:35 Sunny 81 27.2 70 21 69 69 N 8 13 29.91 1013 10 16 0.00 0.00
9:55 am 09:55 Sunny 82 27.9 71 21.7 69 69 NNE 9 15 29.89 1012 10 16 0.00 0.00
10:15 am 10:15 Sunny 84 28.8 72 22.1 67 67 NNE 12 19 29.88 1012 10 16 0.00 0.00
10:35 am 10:35 Sunny 85 29.3 71 21.7 64 64 NE 14 22 29.88 1012 10 16 0.00 0.00
10:55 am 10:55 Sunny 85 29.6 71 21.7 63 63 NNE 9 15 29.89 1012 10 16 0.00 0.00
11:15 am 11:15 Sunny 86 30.1 71 21.8 61 61 NE 13 20 29.89 1012 10 16 0.00 0.00
11:35 am 11:35 Sunny 87 30.4 71 21.8 60 60 NE 14 22 29.88 1012 10 16 0.00 0.00
11:55 am 11:55 Sunny 87 30.6 72 22.2 61 61 ENE 12 19 29.88 1012 10 16 0.00 0.00
12:15 pm 12:15 Sunny 87 30.8 72 22.3 61 61 NE 10 17 29.89 1012 10 16 0.00 0.00
12:35 pm 12:35 Sunny 88 31 71 21.9 58 58 NE 13 20 29.89 1012 10 16 0.00 0.00
12:55 pm 12:55 Sunny 89 31.4 72 22.2 58 58 NE 9 15 29.89 1012 10 16 0.00 0.00
1:15 pm 13:15 Sunny 89 31.7 73 22.7 59 59 NE 10 17 29.88 1012 10 16 0.00 0.00
1:35 pm 13:35 Sunny 90 32.1 73 22.5 57 57 ENE 9 15 29.88 1012 10 16 0.00 0.00
1:55 pm 13:55 Sunny 90 32.1 72 22.1 55 55 NE 8 13 29.87 1012 10 16 0.00 0.00
2:15 pm 14:15 Sunny 91 32.6 71 21.9 53 53 ENE 8 13 29.87 1011 10 16 0.00 0.00
2:35 pm 14:35 Sunny 91 32.6 72 22.3 55 55 NE 8 13 29.87 1011 10 16 0.00 0.00
2:55 pm 14:55 Sunny 92 33.1 71 21.7 51 51 ENE 7 11 29.85 1011 10 16 0.00 0.00
3:15 pm 15:15 Sunny 92 33.4 72 22 51 51 NE 7 11 29.85 1011 10 16 0.00 0.00
3:35 pm 15:35 Sunny 93 33.9 70 21.1 47 47 E 9 15 29.85 1011 10 16 0.00 0.00
3:55 pm 15:55 Sunny 92 33.6 70 21.2 48 48 ENE 9 15 29.85 1011 10 16 0.00 0.00
4:15 pm 16:15 Sunny 93 33.8 71 21.4 48 48 E 10 17 29.85 1011 10 16 0.00 0.00
4:35 pm 16:35 Sunny 93 33.7 70 21 47 47 E 7 11 29.84 1010 10 16 0.00 0.00
4:55 pm 16:55 Sunny 93 34.1 70 20.9 46 46 E 9 15 29.84 1010 10 16 0.00 0.00
5:15 pm 17:15 Sunny 91 32.9 71 21.5 51 51 E 6 9 29.84 1010 10 16 0.00 0.00
5:35 pm 17:35 Sunny 92 33.5 71 21.9 51 51 E 8 13 29.83 1010 10 16 0.00 0.00
5:55 pm 17:55 Sunny 92 33.6 71 21.7 50 50 E 9 15 29.83 1010 10 16 0.00 0.00
6:15 pm 18:15 Sunny 91 32.8 69 20.6 49 49 E 8 13 29.83 1010 10 16 0.00 0.00
6:35 pm 18:35 Sunny 90 32.2 71 21.9 55 55 E 5 7 29.83 1010 10 16 0.00 0.00
6:55 pm 18:55 Sunny 89 31.7 72 22 56 56 ENE 7 11 29.83 1010 10 16 0.00 0.00
7:15 pm 19:15 Sunny 88 31.3 73 22.6 60 60 E 6 9 29.84 1010 10 16 0.00 0.00
7:35 pm 19:35 Sunny 86 30.1 76 24.4 72 72 Calm 29.85 1011 10 16 0.00 0.00
7:55 pm 19:55 Sunny 87 30.4 76 24.2 69 69 E 5 7 29.83 1010 10 16 0.00 0.00
8:15 pm 20:15 Sunny 84 29.1 76 24.7 77 77 E 5 7 29.84 1011 10 16 0.00 0.00
8:35 pm 20:35 Sunny 83 28.5 75 23.8 76 76 E 7 11 29.85 1011 10 16 0.00 0.00
8:55 pm 20:55 Sunny 81 27.2 74 23.5 80 80 E 6 9 29.86 1011 10 16 0.00 0.00
9:15 pm 21:15 Clear 79 26.2 74 23.2 84 84 ESE 7 11 29.87 1011 10 16 0.00 0.00
9:35 pm 21:35 Clear 78 25.3 73 22.7 86 86 E 8 13 29.87 1012 10 16 0.00 0.00
9:55 pm 21:55 Clear 78 25.8 73 22.5 82 82 E 8 13 29.88 1012 10 16 0.00 0.00
10:15 pm 22:15 Clear 77 25.2 71 21.7 81 81 E 5 7 29.89 1012 10 16 0.00 0.00
10:35 pm 22:35 Clear 77 25.1 72 22 83 83 E 6 9 29.91 1013 10 16 0.00 0.00
10:55 pm 22:55 Clear 77 25.2 72 22 82 82 E 7 11 29.91 1013 10 16 0.00 0.00
11:15 pm 23:15 Clear 77 25 72 22 83 83 E 9 15 29.91 1013 10 16 0.00 0.00
11:35 pm 23:35 Clear 77 25.2 72 22 82 82 E 12 19 29.89 1012 10 16 0.00 0.00
11:55 pm 23:55 Clear 78 25.5 72 22.1 82 82 ENE 10 17 29.89 1012 10 16 0.00 0.00

Powered by AerisWeather